CW9803 Weather Reports


Display with metric or nautical units.
time (UTC)temp
F
wind
direction
speed
MPH
gust
MPH
rain 1hr
in
rain 24hr
in
rain mn
in
humidity
%
barometer
mb
20260506203016 76 205 8.0 9.0 0.00 0.00 0.00 38 1012.2
20260506202514 76 159 2.0 3.0 0.00 0.00 0.00 41 1012.0
20260506202010 75 194 9.0 11.0 0.00 0.00 0.00 38 1012.3
20260506201508 75 180 6.0 9.0 0.00 0.00 0.00 39 1012.4
20260506200958 74 189 9.0 11.0 0.00 0.00 0.00 40 1012.3
20260506200454 74 200 8.0 10.0 0.00 0.00 0.00 39 1012.1
20260506195945 74 187 9.0 10.0 0.00 0.00 0.00 38 1012.4
20260506195442 75 179 6.0 8.0 0.00 0.00 0.00 40 1012.4
20260506194939 75 165 6.0 10.0 0.00 0.00 0.00 39 1012.6
20260506194437 75 150 6.0 8.0 0.00 0.00 0.00 40 1012.6
20260506193933 75 168 6.0 8.0 0.00 0.00 0.00 40 1012.6
20260506193430 75 163 5.0 8.0 0.00 0.00 0.00 39 1012.7
20260506192926 74 169 5.0 7.0 0.00 0.00 0.00 40 1012.6
20260506192423 73 165 6.0 8.0 0.00 0.00 0.00 40 1012.9
20260506191915 74 148 6.0 9.0 0.00 0.00 0.00 41 1013.1
20260506191411 73 179 5.0 7.0 0.00 0.00 0.00 42 1012.9
20260506190908 74 132 3.0 3.0 0.00 0.00 0.00 40 1013.2
20260506190404 73 154 8.0 10.0 0.00 0.00 0.00 41 1013.2
20260506185901 73 170 1.0 2.0 0.00 0.00 0.00 42 1013.3
20260506185358 73 174 2.0 4.0 0.00 0.00 0.00 41 1013.3
20260506184855 72 143 3.0 3.0 0.00 0.00 0.00 41 1013.6
20260506184352 73 189 6.0 7.0 0.00 0.00 0.00 42 1013.6
20260506183850 72 184 4.0 4.0 0.00 0.00 0.00 42 1013.6
20260506183344 73 192 6.0 9.0 0.00 0.00 0.00 42 1013.7
20260506182842 72 219 6.0 10.0 0.00 0.00 0.00 42 1013.6
20260506182339 72 190 7.0 8.0 0.00 0.00 0.00 41 1013.6
20260506181837 70 183 7.0 8.0 0.00 0.00 0.00 42 1013.6
20260506181335 71 167 6.0 8.0 0.00 0.00 0.00 44 1013.8
20260506180831 70 154 11.0 11.0 0.00 0.00 0.00 43 1013.7
20260506180327 70 194 5.0 10.0 0.00 0.00 0.00 44 1013.6
20260506175824 71 132 3.0 6.0 0.00 0.00 0.00 42 1013.9
20260506175321 70 239 4.0 4.0 0.00 0.00 0.00 44 1013.8
20260506174818 69 193 6.0 10.0 0.00 0.00 0.00 44 1013.8
20260506174315 69 186 5.0 8.0 0.00 0.00 0.00 44 1013.9
20260506173813 68 166 2.0 3.0 0.00 0.00 0.00 45 1013.8
20260506173309 68 178 6.0 13.0 0.00 0.00 0.00 46 1013.7
20260506172807 69 156 3.0 4.0 0.00 0.00 0.00 47 1013.9
20260506172306 68 185 3.0 4.0 0.00 0.00 0.00 46 1013.7
20260506171801 67 160 11.0 17.0 0.00 0.00 0.00 47 1013.8
20260506171257 67 153 4.0 7.0 0.00 0.00 0.00 48 1013.8
20260506170755 66 247 6.0 8.0 0.00 0.00 0.00 49 1014.2
20260506170251 66 172 3.0 4.0 0.00 0.00 0.00 53 1013.8
20260506165750 65 103 2.0 2.0 0.00 0.00 0.00 54 1013.9
20260506165247 65 156 2.0 3.0 0.00 0.00 0.00 57 1014.0
20260506164744 64 212 3.0 6.0 0.00 0.00 0.00 56 1014.0
20260506164241 64 181 3.0 3.0 0.00 0.00 0.00 55 1014.0
20260506163738 64 157 2.0 3.0 0.00 0.00 0.00 54 1014.3
20260506163232 64 151 3.0 3.0 0.00 0.00 0.00 53 1014.2
20260506162729 63 134 0.0 1.0 0.00 0.00 0.00 57 1014.3
20260506162227 62 131 1.0 2.0 0.00 0.00 0.00 61 1014.2
20260506161724 61 156 2.0 3.0 0.00 0.00 0.00 62 1014.0
20260506161221 59 135 2.0 2.0 0.00 0.00 0.00 65 1014.2
20260506160718 58 158 1.0 1.0 0.00 0.00 0.00 66 1014.2
20260506160215 57 154 3.0 3.0 0.00 0.00 0.00 66 1014.2
20260506155713 56 200 3.0 4.0 0.00 0.00 0.00 69 1014.4
20260506155210 55 145 3.0 4.0 0.00 0.00 0.00 69 1014.5
20260506153312 54 146 1.0 1.0 0.00 0.00 0.00 69 1014.4
20260506152809 54 142 1.0 1.0 0.00 0.00 0.00 69 1014.5
20260506152306 54 130 1.0 1.0 0.00 0.00 0.00 68 1014.4
20260506151805 53 144 0.0 0.0 0.00 0.00 0.00 71 1014.5
20260506151301 53 101 1.0 1.0 0.00 0.00 0.00 69 1014.6
20260506150758 52 106 0.0 1.0 0.00 0.00 0.00 73 1014.5
20260506150303 51 112 0.0 0.0 0.00 0.00 0.00 74 1014.7
20260506145752 51 107 0.0 1.0 0.00 0.00 0.00 73 1014.3
20260506145248 50 145 0.0 0.0 0.00 0.00 0.00 75 1014.3
20260506144746 50 107 0.0 0.0 0.00 0.00 0.00 76 1014.4
20260506144242 49 110 0.0 1.0 0.00 0.00 0.00 77 1014.6
20260506143740 50 103 1.0 1.0 0.00 0.00 0.00 76 1014.0
20260506143237 49 102 0.0 1.0 0.00 0.00 0.00 77 1014.4
20260506142736 48 102 0.0 0.0 0.00 0.00 0.00 78 1014.4
20260506142233 48 123 0.0 0.0 0.00 0.00 0.00 80 1014.2
20260506141731 47 133 0.0 0.0 0.00 0.00 0.00 81 1014.3
20260506141229 46 133 0.0 0.0 0.00 0.00 0.00 83 1014.2
20260506140727 46 133 0.0 0.0 0.00 0.00 0.00 83 1014.2
20260506140223 45 133 0.0 0.0 0.00 0.00 0.00 83 1014.3
20260506135720 45 132 0.0 0.0 0.00 0.00 0.00 84 1013.9
20260506135216 44 129 0.0 0.0 0.00 0.00 0.00 85 1014.6
20260506134714 44 129 0.0 0.0 0.00 0.00 0.00 87 1014.4
20260506134209 43 100 0.0 0.0 0.00 0.00 0.00 86 1014.4
20260506133707 43 98 0.0 0.0 0.00 0.00 0.00 88 1014.3
20260506133203 42 96 0.0 0.0 0.00 0.00 0.00 89 1014.4
20260506132701 42 101 0.0 0.0 0.00 0.00 0.00 90 1014.2
20260506132157 42 108 0.0 0.0 0.00 0.00 0.00 91 1014.3
20260506131655 41 120 0.0 0.0 0.00 0.00 0.00 92 1013.9
20260506131151 41 126 0.0 0.0 0.00 0.00 0.00 93 1014.0
20260506130648 40 139 0.0 0.0 0.00 0.00 0.00 94 1014.2
20260506130145 39 139 0.0 0.0 0.00 0.00 0.00 94 1013.9
20260506125644 39 140 0.0 0.0 0.00 0.00 0.00 94 1013.8
20260506125141 39 125 0.0 0.0 0.00 0.00 0.00 95 1013.8
20260506124639 39 122 0.0 0.0 0.00 0.00 0.00 95 1014.2
20260506124136 38 122 0.0 0.0 0.00 0.00 0.00 95 1013.8
20260506123634 38 122 0.0 0.0 0.00 0.00 0.00 95 1013.8
20260506123132 38 122 0.0 0.0 0.00 0.00 0.00 95 1013.7
20260506122629 39 121 0.0 0.0 0.00 0.00 0.00 95 1013.8
20260506122126 39 123 0.0 0.0 0.00 0.00 0.00 95 1013.8
20260506121624 39 151 0.0 0.0 0.00 0.00 0.00 95 1013.7
20260506121120 39 152 0.0 0.0 0.00 0.00 0.00 95 1013.6
20260506120618 39 152 0.0 0.0 0.00 0.00 0.00 95 1013.6
20260506120115 39 152 0.0 0.0 0.00 0.00 0.00 95 1013.6
20260506115614 39 152 0.0 0.0 0.00 0.00 0.00 95 1013.5
20260506115112 39 153 0.0 0.0 0.00 0.00 0.00 95 1013.5
20260506114608 39 153 0.0 0.0 0.00 0.00 0.00 95 1013.5
20260506114107 40 153 0.0 0.0 0.00 0.00 0.00 95 1013.4
20260506113604 40 153 0.0 0.0 0.00 0.00 0.00 95 1013.4
20260506113101 39 153 0.0 0.0 0.00 0.00 0.00 94 1013.5
20260506112557 40 154 0.0 0.0 0.00 0.00 0.00 94 1013.6
20260506112055 40 162 0.0 1.0 0.00 0.00 0.00 94 1013.5
20260506111553 40 158 1.0 1.0 0.00 0.00 0.00 93 1013.5
20260506111050 40 148 0.0 0.0 0.00 0.00 0.00 93 1013.5
20260506110548 40 121 0.0 0.0 0.00 0.00 0.00 93 1013.3
20260506110045 40 120 0.0 0.0 0.00 0.00 0.00 92 1013.2
20260506105541 40 121 0.0 0.0 0.00 0.00 0.00 92 1013.3
20260506105038 40 121 0.0 0.0 0.00 0.00 0.00 92 1013.3
20260506104536 41 128 0.0 0.0 0.00 0.00 0.00 92 1013.2
20260506104034 41 151 0.0 0.0 0.00 0.00 0.00 92 1013.2
20260506103531 41 134 0.0 0.0 0.00 0.00 0.00 91 1013.0
20260506103027 41 127 0.0 0.0 0.00 0.00 0.00 91 1012.7
20260506102526 41 126 0.0 0.0 0.00 0.00 0.00 91 1013.0
20260506102023 41 133 0.0 0.0 0.00 0.00 0.00 91 1012.9
20260506101519 41 134 0.0 0.0 0.00 0.00 0.00 91 1012.9
20260506101017 41 132 0.0 0.0 0.00 0.00 0.00 91 1012.9
20260506100515 41 132 0.0 0.0 0.00 0.00 0.00 91 1012.9
20260506100013 41 145 0.0 0.0 0.00 0.00 0.00 91 1012.6
20260506095511 41 142 0.0 0.0 0.00 0.00 0.00 91 1012.7
20260506095007 41 107 0.0 0.0 0.00 0.00 0.00 91 1012.6
20260506094505 42 120 0.0 0.0 0.00 0.00 0.00 91 1012.7
20260506094003 42 123 0.0 0.0 0.00 0.00 0.00 91 1012.9
20260506093501 42 138 0.0 0.0 0.00 0.00 0.00 90 1012.6
20260506092958 42 141 0.0 0.0 0.00 0.00 0.00 90 1012.7
20260506092456 43 142 0.0 0.0 0.00 0.00 0.00 91 1012.6
20260506091952 42 123 0.0 0.0 0.00 0.00 0.00 91 1012.6
20260506091450 43 123 0.0 0.0 0.00 0.00 0.00 91 1012.6
20260506090947 43 133 0.0 0.0 0.00 0.00 0.00 91 1012.5
20260506090445 43 147 0.0 0.0 0.00 0.00 0.00 91 1012.6
20260506085941 43 148 0.0 0.0 0.00 0.00 0.00 90 1012.6
20260506085438 44 149 0.0 0.0 0.00 0.00 0.00 90 1012.6
20260506084934 43 149 0.0 0.0 0.00 0.00 0.00 89 1012.7
20260506084432 43 149 0.0 0.0 0.00 0.00 0.00 89 1012.4
20260506083927 43 137 0.0 0.0 0.00 0.00 0.00 88 1012.5
20260506083425 44 126 0.0 0.0 0.00 0.00 0.00 88 1012.3
20260506082922 44 146 0.0 0.0 0.00 0.00 0.00 88 1012.5
20260506082419 44 129 0.0 0.0 0.00 0.00 0.00 88 1012.5
20260506081914 45 129 0.0 0.0 0.00 0.00 0.00 88 1012.5
20260506081413 45 129 0.0 0.0 0.00 0.00 0.00 88 1012.5
20260506080910 45 126 0.0 0.0 0.00 0.00 0.00 88 1012.5
20260506080407 45 115 0.0 0.0 0.00 0.00 0.00 88 1012.4
20260506073351 47 148 0.0 0.0 0.00 0.00 0.00 86 1012.1
20260506072848 47 149 0.0 0.0 0.00 0.00 0.00 87 1012.2
20260506072345 47 149 0.0 0.0 0.00 0.00 0.00 86 1012.3
20260506071843 47 149 0.0 0.0 0.00 0.00 0.00 86 1012.3
20260506071341 47 118 0.0 0.0 0.00 0.00 0.00 86 1012.1
20260506070837 47 118 0.0 0.0 0.00 0.00 0.00 86 1012.1
20260506070335 48 117 0.0 0.0 0.00 0.00 0.00 84 1012.1
20260506062312 49 103 0.0 0.0 0.00 0.00 0.00 82 1011.7
20260506061808 50 103 0.0 0.0 0.00 0.00 0.00 82 1011.7
20260506061305 50 113 0.0 0.0 0.00 0.00 0.00 82 1011.6
20260506060803 50 104 0.0 1.0 0.00 0.00 0.00 80 1011.6
20260506060301 50 107 0.0 0.0 0.00 0.00 0.00 80 1011.7
20260506051232 53 173 1.0 1.0 0.00 0.00 0.00 73 1011.3
20260506050730 53 139 0.0 0.0 0.00 0.00 0.00 72 1011.0
20260506050227 54 139 0.0 0.0 0.00 0.00 0.00 72 1011.1
20260506044718 55 140 0.0 0.0 0.00 0.00 0.00 69 1011.1
20260506044215 56 140 0.0 0.0 0.00 0.00 0.00 67 1010.8
20260506043712 57 146 0.0 0.0 0.00 0.00 0.00 65 1011.1
20260506043210 58 147 0.0 0.0 0.00 0.00 0.00 62 1010.8
20260506042709 58 171 1.0 1.0 0.00 0.00 0.00 62 1010.7
20260506042207 58 157 1.0 1.0 0.00 0.00 0.00 63 1010.7
20260506041705 58 196 1.0 2.0 0.00 0.00 0.00 63 1010.5
20260506041201 59 174 0.0 0.0 0.00 0.00 0.00 62 1010.5
20260506040659 60 150 0.0 0.0 0.00 0.00 0.00 60 1010.7
20260506040155 60 168 1.0 1.0 0.00 0.00 0.00 58 1010.5
20260506035652 60 123 0.0 0.0 0.00 0.00 0.00 59 1010.5
20260506035149 60 55 2.0 2.0 0.00 0.00 0.00 59 1010.5
20260506034646 59 100 1.0 2.0 0.00 0.00 0.00 61 1010.3
20260506034143 59 96 0.0 0.0 0.00 0.00 0.00 63 1010.3
20260506033641 59 56 1.0 2.0 0.00 0.00 0.00 62 1010.3
20260506033137 59 115 1.0 1.0 0.00 0.00 0.00 61 1010.1
20260506032634 60 107 1.0 1.0 0.00 0.00 0.00 60 1010.3
20260506032131 61 103 1.0 1.0 0.00 0.00 0.00 58 1010.3
20260506031628 62 138 0.0 0.0 0.00 0.00 0.00 57 1009.9
20260506031125 62 60 1.0 1.0 0.00 0.00 0.00 55 1010.1
20260506030624 63 109 0.0 0.0 0.00 0.00 0.00 54 1010.0
20260506030120 62 114 0.0 0.0 0.00 0.00 0.00 54 1009.9
20260506025617 63 86 0.0 1.0 0.00 0.00 0.00 56 1009.8
20260506025113 64 142 0.0 0.0 0.00 0.00 0.00 55 1010.0
20260506024611 64 59 1.0 1.0 0.00 0.00 0.00 53 1009.9
20260506024107 66 107 0.0 0.0 0.00 0.00 0.00 50 1009.8
20260506023603 66 204 2.0 2.0 0.00 0.00 0.00 48 1009.4
20260506023101 67 271 2.0 3.0 0.00 0.00 0.00 47 1009.6
20260506022558 68 165 0.0 0.0 0.00 0.00 0.00 46 1009.6
20260506022056 68 314 1.0 2.0 0.00 0.00 0.00 46 1009.5
20260506021553 68 26 1.0 1.0 0.00 0.00 0.00 46 1009.5
20260506021050 70 130 1.0 2.0 0.00 0.00 0.00 41 1009.5
20260506020547 71 231 3.0 3.0 0.00 0.00 0.00 40 1009.4
20260506020045 71 130 1.0 1.0 0.00 0.00 0.00 40 1009.4
20260506015542 71 122 2.0 2.0 0.00 0.00 0.00 40 1009.5
20260506015039 71 237 3.0 6.0 0.00 0.00 0.00 39 1009.4
20260506014536 71 281 3.0 4.0 0.00 0.00 0.00 38 1009.2
20260506014032 72 278 4.0 4.0 0.00 0.00 0.00 37 1009.3
20260506013531 72 315 6.0 9.0 0.00 0.00 0.00 37 1009.0
20260506013027 73 256 4.0 4.0 0.00 0.00 0.00 37 1009.1
20260506012523 73 327 4.0 4.0 0.00 0.00 0.00 37 1009.0
20260506012020 73 286 11.0 13.0 0.00 0.00 0.00 36 1009.2
20260506011518 73 196 5.0 7.0 0.00 0.00 0.00 35 1009.0
20260506011014 73 233 6.0 7.0 0.00 0.00 0.00 34 1009.1
20260506010513 74 227 2.0 2.0 0.00 0.00 0.00 33 1008.8
20260506010009 74 289 7.0 9.0 0.00 0.00 0.00 33 1008.8
20260506005507 74 316 5.0 6.0 0.00 0.00 0.00 33 1009.0
20260506005002 74 335 4.0 4.0 0.00 0.00 0.00 32 1009.0
20260506004500 74 306 8.0 10.0 0.00 0.00 0.00 32 1009.1
20260506003956 74 149 1.0 2.0 0.00 0.00 0.00 33 1008.7
20260506003452 74 232 8.0 9.0 0.00 0.00 0.00 31 1008.6
20260506002948 75 244 4.0 7.0 0.00 0.00 0.00 33 1008.6
20260506002445 75 346 6.0 8.0 0.00 0.00 0.00 30 1008.8
20260506001940 75 335 6.0 10.0 0.00 0.00 0.00 32 1008.5
20260506001438 75 353 6.0 9.0 0.00 0.00 0.00 32 1008.8
20260506000935 75 27 5.0 7.0 0.00 0.00 0.00 32 1008.8
20260506000432 76 310 6.0 10.0 0.00 0.00 0.00 30 1008.8
20260505235929 76 350 4.0 6.0 0.00 0.00 0.00 31 1008.7
20260505235427 76 206 5.0 6.0 0.00 0.00 0.00 28 1008.5
20260505234924 76 326 9.0 11.0 0.00 0.00 0.00 27 1009.0
20260505234421 76 301 4.0 4.0 0.00 0.00 0.00 29 1008.7
20260505233918 75 188 4.0 6.0 0.00 0.00 0.00 30 1008.7
20260505233416 76 183 3.0 7.0 0.00 0.00 0.00 32 1008.8
20260505232913 75 349 4.0 6.0 0.00 0.00 0.00 31 1008.6
20260505232411 76 328 4.0 7.0 0.00 0.00 0.00 31 1008.7
20260505231907 76 113 6.0 9.0 0.00 0.00 0.00 31 1008.6
20260505231405 76 99 7.0 10.0 0.00 0.00 0.00 30 1008.7
20260505230903 76 25 4.0 4.0 0.00 0.00 0.00 33 1008.5
20260505230400 77 221 5.0 6.0 0.00 0.00 0.00 34 1008.8
20260505225856 76 350 5.0 8.0 0.00 0.00 0.00 34 1008.6
20260505225354 77 214 4.0 4.0 0.00 0.00 0.00 34 1008.5
20260505224849 76 306 6.0 7.0 0.00 0.00 0.00 35 1008.6
20260505224347 76 148 2.0 2.0 0.00 0.00 0.00 35 1008.5
20260505223843 77 259 6.0 7.0 0.00 0.00 0.00 35 1008.8
20260505223340 77 265 6.0 9.0 0.00 0.00 0.00 33 1008.7
20260505222836 77 300 6.0 8.0 0.00 0.00 0.00 33 1008.6
20260505222332 77 7 3.0 4.0 0.00 0.00 0.00 33 1008.6
20260505221830 76 298 5.0 6.0 0.00 0.00 0.00 33 1008.8
20260505221326 77 210 5.0 7.0 0.00 0.00 0.00 33 1008.6
20260505220823 76 318 12.0 17.0 0.00 0.00 0.00 33 1008.7
20260505220320 76 275 7.0 11.0 0.00 0.00 0.00 34 1008.6
20260505215819 76 297 8.0 10.0 0.00 0.00 0.00 34 1008.8
20260505215316 77 151 5.0 7.0 0.00 0.00 0.00 35 1008.7
20260505214814 76 300 4.0 6.0 0.00 0.00 0.00 34 1009.0
20260505214311 77 311 9.0 10.0 0.00 0.00 0.00 35 1009.0
20260505213808 76 303 5.0 7.0 0.00 0.00 0.00 35 1008.7
20260505213306 76 353 4.0 4.0 0.00 0.00 0.00 34 1009.0
20260505212801 76 322 10.0 13.0 0.00 0.00 0.00 36 1008.6
20260505212259 76 264 6.0 8.0 0.00 0.00 0.00 36 1008.7
20260505211755 76 326 4.0 6.0 0.00 0.00 0.00 36 1008.7
20260505211253 75 147 4.0 6.0 0.00 0.00 0.00 36 1008.6
20260505210749 75 285 5.0 7.0 0.00 0.00 0.00 36 1008.7
20260505210246 76 301 4.0 6.0 0.00 0.00 0.00 35 1008.6
20260505205743 77 353 4.0 6.0 0.00 0.00 0.00 36 1008.7
20260505205242 74 7 4.0 6.0 0.00 0.00 0.00 37 1008.8
20260505204738 76 231 4.0 4.0 0.00 0.00 0.00 35 1009.1
20260505204236 74 301 3.0 3.0 0.00 0.00 0.00 38 1008.7
20260505203732 74 336 3.0 3.0 0.00 0.00 0.00 37 1008.6